CW1238 Weather Reports


Display with metric or nautical units.
time (UTC)temp
F
wind
direction
speed
MPH
gust
MPH
rain 1hr
in
rain 24hr
in
rain mn
in
humidity
%
barometer
mb
20260906092953 67 238 0.0 1.0 0.00 0.00 0.00 98 1056.4
20260906092453 67 225 0.0 0.0 0.00 0.00 0.00 98 1056.5
20260906091948 67 227 0.0 1.0 0.00 0.00 0.00 98 1056.5
20260906091444 67 227 0.0 0.0 0.00 0.00 0.00 97 1056.5
20260906090940 68 209 1.0 2.0 0.00 0.00 0.00 97 1056.3
20260906090436 68 237 0.0 2.0 0.00 0.00 0.00 97 1056.2
20260906085930 68 223 0.0 1.0 0.00 0.00 0.00 97 1056.1
20260906085430 68 179 2.0 3.0 0.00 0.00 0.00 97 1055.9
20260906084929 68 220 1.0 2.0 0.00 0.00 0.00 96 1055.8
20260906084424 69 10 2.0 3.0 0.00 0.00 0.00 96 1055.8
20260906083923 69 216 0.0 4.0 0.00 0.00 0.00 96 1055.7
20260906083418 69 81 4.0 6.0 0.00 0.00 0.00 96 1055.7
20260906082917 69 20 2.0 4.0 0.00 0.00 0.00 96 1055.8
20260906082413 69 302 2.0 3.0 0.00 0.00 0.00 96 1056.0
20260906081909 69 99 2.0 2.0 0.00 0.00 0.00 96 1055.9
20260906081404 69 74 3.0 3.0 0.00 0.00 0.00 96 1055.9
20260906080900 69 261 4.0 6.0 0.00 0.00 0.00 96 1055.8
20260906080357 69 101 2.0 6.0 0.00 0.00 0.00 96 1055.8
20260906075856 69 47 4.0 4.0 0.00 0.00 0.00 96 1055.8
20260906075350 69 220 2.0 4.0 0.00 0.00 0.00 95 1055.8
20260906074846 69 44 2.0 3.0 0.00 0.00 0.00 95 1055.8
20260906074345 69 157 1.0 4.0 0.00 0.00 0.00 95 1056.0
20260906073844 69 143 2.0 3.0 0.00 0.00 0.00 95 1056.1
20260906073339 70 343 1.0 3.0 0.00 0.00 0.00 95 1056.1
20260906072836 70 126 2.0 4.0 0.00 0.00 0.00 94 1056.2
20260906072331 70 313 1.0 6.0 0.00 0.00 0.00 94 1056.2
20260906071827 70 245 2.0 3.0 0.00 0.00 0.00 94 1056.2
20260906071322 70 1 3.0 4.0 0.00 0.00 0.00 94 1056.1
20260906070818 70 89 1.0 7.0 0.00 0.00 0.00 94 1056.2
20260906070314 70 340 1.0 4.0 0.00 0.00 0.00 94 1056.4
20260906065813 70 52 4.0 6.0 0.00 0.00 0.00 94 1056.3
20260906065309 71 221 2.0 8.0 0.00 0.00 0.00 94 1056.3
20260906064804 71 16 2.0 4.0 0.00 0.00 0.00 94 1056.3
20260906064300 70 70 1.0 3.0 0.00 0.00 0.00 94 1056.5
20260906063755 71 38 4.0 8.0 0.00 0.00 0.00 94 1056.4
20260906063251 71 51 2.0 4.0 0.00 0.00 0.00 94 1056.3
20260906062746 71 94 3.0 6.0 0.00 0.00 0.00 94 1056.5
20260906062245 71 100 5.0 7.0 0.00 0.00 0.00 93 1056.5
20260906061741 71 36 2.0 4.0 0.00 0.00 0.00 93 1056.4
20260906061237 71 63 1.0 2.0 0.00 0.00 0.00 93 1056.4
20260906060731 71 64 4.0 4.0 0.00 0.00 0.00 93 1056.3
20260906060229 71 226 0.0 2.0 0.00 0.00 0.00 94 1056.5
20260906055725 71 33 2.0 3.0 0.00 0.00 0.00 94 1056.5
20260906055220 71 70 1.0 4.0 0.00 0.00 0.00 94 1056.4
20260906054716 71 312 1.0 4.0 0.00 0.00 0.00 94 1056.5
20260906054215 71 95 2.0 3.0 0.00 0.00 0.00 95 1056.6
20260906053712 71 72 2.0 3.0 0.00 0.00 0.00 95 1056.6
20260906053207 71 76 2.0 3.0 0.00 0.00 0.00 95 1056.7
20260906052702 71 357 1.0 2.0 0.00 0.00 0.00 95 1056.4
20260906052159 71 139 1.0 3.0 0.00 0.00 0.00 95 1056.4
20260906051655 71 56 2.0 3.0 0.00 0.00 0.00 95 1056.5
20260906051154 71 273 1.0 3.0 0.00 0.00 0.00 95 1056.4
20260906050650 72 81 3.0 4.0 0.00 0.00 0.00 95 1056.6
20260906050145 72 22 1.0 3.0 0.00 0.00 0.00 96 1056.5
20260906045643 72 262 1.0 3.0 0.00 0.00 0.00 96 1056.6
20260906045139 72 288 1.0 2.0 0.00 0.00 0.00 96 1056.6
20260906044635 72 121 3.0 7.0 0.00 0.00 0.00 96 1056.3
20260906044130 72 49 1.0 3.0 0.00 0.00 0.00 95 1056.3
20260906043626 72 157 1.0 1.0 0.00 0.00 0.00 95 1056.3
20260906043121 72 37 2.0 3.0 0.00 0.00 0.00 96 1056.2
20260906042621 72 55 1.0 2.0 0.00 0.00 0.00 96 1056.5
20260906042115 72 7 2.0 2.0 0.00 0.00 0.00 96 1056.3
20260906041611 72 252 1.0 2.0 0.00 0.00 0.00 96 1056.1
20260906041106 72 142 1.0 2.0 0.00 0.00 0.00 96 1056.2
20260906040601 72 102 3.0 3.0 0.00 0.00 0.00 96 1056.2
20260906040057 73 92 2.0 3.0 0.00 0.00 0.00 96 1056.4
20260906035552 73 37 2.0 3.0 0.00 0.00 0.00 95 1056.3
20260906035042 73 358 2.0 2.0 0.00 0.00 0.00 95 1056.1
20260906034542 73 271 0.0 1.0 0.00 0.00 0.00 95 1056.2
20260906034037 73 219 0.0 3.0 0.00 0.00 0.00 95 1056.1
20260906033532 73 166 1.0 1.0 0.00 0.00 0.00 95 1056.4
20260906033027 73 193 1.0 1.0 0.00 0.00 0.00 95 1056.3
20260906032524 73 212 0.0 3.0 0.00 0.00 0.00 94 1056.3
20260906032024 73 212 1.0 2.0 0.00 0.00 0.00 94 1056.3
20260906031520 73 315 1.0 1.0 0.00 0.00 0.00 95 1056.1
20260906031015 73 293 0.0 1.0 0.00 0.00 0.00 95 1056.2
20260906030514 73 5 1.0 2.0 0.00 0.00 0.00 95 1056.0
20260906030014 73 244 0.0 0.0 0.00 0.00 0.00 95 1056.2
20260906025514 73 257 0.0 0.0 0.00 0.00 0.00 94 1056.0
20260906025012 73 249 0.0 0.0 0.00 0.00 0.00 94 1056.0
20260906024508 73 222 1.0 2.0 0.00 0.00 0.00 94 1056.2
20260906024008 73 169 0.0 0.0 0.00 0.00 0.00 95 1055.7
20260906023504 73 285 0.0 0.0 0.00 0.00 0.00 95 1055.9
20260906022959 73 228 0.0 0.0 0.00 0.00 0.00 95 1055.9
20260906022454 73 220 0.0 0.0 0.00 0.00 0.00 95 1056.0
20260906021949 73 299 0.0 0.0 0.00 0.00 0.00 95 1055.7
20260906021444 73 227 0.0 0.0 0.00 0.00 0.00 94 1055.8
20260906020944 73 241 0.0 0.0 0.00 0.00 0.00 95 1055.9
20260906020438 73 175 0.0 0.0 0.00 0.00 0.00 95 1055.5
20260906015932 73 222 0.0 0.0 0.00 0.00 0.00 96 1055.6
20260906015426 73 239 0.0 0.0 0.00 0.00 0.00 96 1055.4
20260906014926 73 252 0.0 0.0 0.00 0.00 0.00 96 1055.2
20260906014426 73 249 0.0 0.0 0.00 0.00 0.00 96 1055.3
20260906013922 73 274 0.0 0.0 0.00 0.00 0.00 96 1055.2
20260906013417 73 248 0.0 0.0 0.00 0.00 0.00 96 1055.2
20260906012913 73 220 0.0 0.0 0.00 0.00 0.00 96 1055.4
20260906012408 73 221 0.0 0.0 0.00 0.00 0.00 95 1055.3
20260906011907 73 237 0.0 0.0 0.00 0.00 0.00 95 1054.9
20260906011402 73 248 0.0 0.0 0.00 0.00 0.00 95 1055.1
20260906010858 74 226 0.0 0.0 0.00 0.00 0.00 95 1054.8
20260906010353 74 248 0.0 0.0 0.00 0.00 0.00 94 1054.9
20260906005849 74 237 0.0 0.0 0.00 0.00 0.00 94 1054.7
20260906005348 74 238 0.0 0.0 0.00 0.00 0.00 93 1054.6
20260906004847 75 252 0.0 0.0 0.00 0.00 0.00 93 1054.6
20260906004342 75 270 0.0 0.0 0.00 0.00 0.00 93 1054.6
20260906003837 75 227 0.0 0.0 0.00 0.00 0.00 92 1054.6
20260906003332 75 239 0.0 0.0 0.00 0.00 0.00 92 1054.6
20260906002828 75 257 0.0 0.0 0.00 0.00 0.00 92 1054.4
20260906002327 75 238 0.0 0.0 0.00 0.00 0.00 91 1054.7
20260906001823 75 234 0.0 0.0 0.00 0.00 0.00 91 1054.6
20260906001318 75 223 0.0 0.0 0.00 0.00 0.00 91 1054.4
20260906000813 75 298 0.0 3.0 0.00 0.00 0.00 91 1054.4
20260906000308 76 187 1.0 1.0 0.00 0.00 0.00 91 1054.5
20260905235803 76 220 0.0 0.0 0.00 0.00 0.00 91 1054.3
20260905235306 76 238 0.0 1.0 0.00 0.00 0.00 91 1054.6
20260905234757 76 188 0.0 2.0 0.00 0.00 0.00 91 1054.6
20260905234252 76 44 1.0 2.0 0.00 0.00 0.00 91 1054.4
20260905233748 76 222 0.0 0.0 0.00 0.00 0.00 91 1054.4
20260905233247 76 231 0.0 3.0 0.00 0.00 0.00 91 1054.3
20260905232742 76 200 1.0 2.0 0.00 0.00 0.00 91 1054.3
20260905232238 76 139 2.0 2.0 0.00 0.00 0.00 91 1054.3
20260905231734 77 237 1.0 1.0 0.00 0.00 0.00 90 1054.4
20260905231229 77 135 0.0 2.0 0.00 0.00 0.00 90 1054.3
20260905230725 77 330 0.0 1.0 0.00 0.00 0.00 90 1054.2
20260905230222 77 47 3.0 3.0 0.00 0.00 0.00 88 1054.5
20260905225722 77 58 1.0 2.0 0.00 0.00 0.00 88 1054.4
20260905225217 77 354 2.0 3.0 0.00 0.00 0.00 88 1054.4
20260905224716 77 327 2.0 3.0 0.00 0.00 0.00 89 1054.2
20260905224212 77 228 0.0 2.0 0.00 0.00 0.00 89 1054.2
20260905223708 76 12 2.0 2.0 0.00 0.00 0.00 90 1054.1
20260905223204 76 279 1.0 2.0 0.00 0.00 0.00 90 1054.2
20260905222700 76 16 1.0 4.0 0.00 0.00 0.00 90 1054.0
20260905222159 76 37 1.0 2.0 0.00 0.00 0.00 90 1054.1
20260905221655 76 77 2.0 3.0 0.00 0.00 0.00 90 1054.0
20260905221152 76 84 2.0 2.0 0.00 0.00 0.00 90 1053.9
20260905220647 76 71 3.0 4.0 0.00 0.00 0.00 89 1053.7
20260905220143 76 14 2.0 3.0 0.00 0.00 0.00 90 1053.8
20260905215642 76 51 4.0 4.0 0.00 0.00 0.00 89 1054.0
20260905215139 76 91 3.0 6.0 0.00 0.00 0.00 89 1054.0
20260905214635 76 343 2.0 3.0 0.00 0.00 0.00 89 1054.1
20260905214135 76 236 0.0 1.0 0.00 0.00 0.00 90 1054.0
20260905213630 76 63 2.0 3.0 0.00 0.00 0.00 89 1054.0
20260905213125 75 79 2.0 4.0 0.00 0.00 0.00 89 1054.1
20260905212620 76 41 4.0 6.0 0.00 0.00 0.00 89 1054.1
20260905212114 76 46 3.0 6.0 0.00 0.00 0.00 88 1054.2
20260905211609 76 254 2.0 3.0 0.00 0.00 0.00 88 1054.3
20260905211105 76 259 1.0 1.0 0.00 0.00 0.00 88 1054.2
20260905210602 76 47 2.0 6.0 0.00 0.00 0.00 88 1054.3
20260905210055 76 197 3.0 6.0 0.00 0.00 0.00 89 1054.4
20260905205554 76 66 2.0 7.0 0.00 0.00 0.00 88 1054.3
20260905205049 76 67 2.0 4.0 0.00 0.00 0.00 88 1054.3
20260905204549 76 245 0.0 3.0 0.00 0.00 0.00 88 1054.5
20260905204044 76 79 2.0 6.0 0.00 0.00 0.00 87 1054.4
20260905203543 76 213 1.0 8.0 0.00 0.00 0.00 87 1054.2
20260905203039 76 71 2.0 8.0 0.00 0.00 0.00 87 1054.1
20260905202534 77 66 4.0 9.0 0.00 0.00 0.00 87 1054.0
20260905202030 77 23 4.0 8.0 0.00 0.00 0.00 87 1053.8
20260905201525 77 41 3.0 9.0 0.00 0.00 0.00 87 1054.0
20260905201024 78 51 3.0 4.0 0.00 0.00 0.00 86 1054.3
20260905200520 79 78 2.0 6.0 0.00 0.00 0.00 86 1054.2
20260905200014 79 161 2.0 10.0 0.00 0.00 0.00 86 1054.1
20260905195509 79 74 2.0 6.0 0.00 0.00 0.00 86 1054.1
20260905195004 79 57 5.0 8.0 0.00 0.00 0.00 85 1054.3
20260905194504 79 100 6.0 9.0 0.00 0.00 0.00 85 1054.1
20260905194004 79 52 6.0 9.0 0.00 0.00 0.00 87 1053.7
20260905193504 79 23 9.0 13.0 0.00 0.00 0.00 87 1053.9
20260905192959 79 58 1.0 7.0 0.00 0.00 0.00 86 1053.9
20260905192454 79 48 3.0 10.0 0.00 0.00 0.00 87 1053.9
20260905191950 79 139 2.0 9.0 0.00 0.00 0.00 88 1053.8
20260905191449 79 341 4.0 9.0 0.00 0.00 0.00 87 1054.1
20260905190948 79 37 4.0 7.0 0.00 0.00 0.00 87 1054.6
20260905190447 79 92 3.0 4.0 0.00 0.00 0.00 87 1054.9
20260905185945 79 68 1.0 6.0 0.00 0.00 0.00 87 1054.9
20260905185441 79 89 2.0 4.0 0.00 0.00 0.00 87 1055.3
20260905184939 80 51 1.0 3.0 0.00 0.00 0.00 87 1055.4
20260905184434 79 139 0.0 2.0 0.00 0.00 0.00 88 1055.6
20260905183933 78 94 4.0 6.0 0.00 0.00 0.00 88 1055.7
20260905183422 78 72 2.0 6.0 0.00 0.00 0.00 89 1055.8
20260905182918 77 10 1.0 3.0 0.00 0.00 0.00 90 1055.9
20260905182416 78 94 0.0 3.0 0.00 0.00 0.00 90 1055.9
20260905181912 78 61 2.0 2.0 0.00 0.00 0.00 90 1056.1
20260905181406 78 66 4.0 6.0 0.00 0.00 0.00 90 1056.0
20260905180906 78 14 1.0 2.0 0.00 0.00 0.00 91 1056.0
20260905180401 78 276 1.0 2.0 0.00 0.00 0.00 91 1056.1
20260905175901 77 72 1.0 3.0 0.00 0.00 0.00 92 1056.2
20260905175400 77 236 0.0 3.0 0.00 0.00 0.00 93 1056.2
20260905174855 76 252 1.0 2.0 0.00 0.00 0.00 94 1056.4
20260905174351 76 68 2.0 3.0 0.00 0.00 0.00 94 1056.4
20260905173847 77 246 1.0 2.0 0.00 0.00 0.00 91 1056.7
20260905173343 77 255 1.0 2.0 0.00 0.00 0.00 91 1056.5
20260905172838 78 29 1.0 2.0 0.00 0.00 0.00 91 1056.3
20260905172335 77 249 0.0 2.0 0.00 0.00 0.00 92 1056.2
20260905171832 77 335 2.0 4.0 0.00 0.00 0.00 92 1056.2
20260905171329 76 193 2.0 4.0 0.00 0.00 0.00 94 1056.4
20260905170825 76 61 3.0 4.0 0.00 0.00 0.00 94 1056.3
20260905170320 75 247 0.0 1.0 0.00 0.00 0.00 95 1056.3
20260905165819 75 246 0.0 2.0 0.00 0.00 0.00 96 1056.5
20260905165310 75 39 2.0 3.0 0.00 0.00 0.00 96 1056.5
20260905164809 75 274 0.0 1.0 0.00 0.00 0.00 97 1056.9
20260905164304 75 178 1.0 1.0 0.00 0.00 0.00 96 1057.0
20260905163759 75 281 1.0 2.0 0.00 0.00 0.00 97 1056.7
20260905163255 75 225 0.0 1.0 0.00 0.00 0.00 97 1056.5
20260905162751 74 76 2.0 3.0 0.00 0.00 0.00 97 1056.6
20260905162251 74 50 2.0 2.0 0.00 0.00 0.00 98 1056.4
20260905161745 74 286 1.0 2.0 0.00 0.00 0.00 98 1056.3
20260905161244 74 63 3.0 6.0 0.00 0.00 0.00 99 1056.3
20260905160743 74 107 2.0 2.0 0.00 0.00 0.00 99 1056.2
20260905160243 74 233 1.0 1.0 0.00 0.00 0.00 99 1056.0
20260905155738 74 55 2.0 3.0 0.00 0.00 0.00 99 1056.1
20260905155237 74 14 1.0 2.0 0.00 0.00 0.00 99 1055.9
20260905154731 74 261 0.0 1.0 0.00 0.00 0.00 99 1056.2
20260905154228 74 167 0.0 1.0 0.00 0.00 0.00 99 1055.9
20260905153723 74 24 2.0 3.0 0.00 0.00 0.00 99 1056.0
20260905153219 73 265 0.0 3.0 0.00 0.00 0.00 99 1056.0
20260905152718 73 249 0.0 2.0 0.00 0.00 0.00 99 1056.0
20260905152213 73 328 1.0 3.0 0.00 0.00 0.00 99 1056.0
20260905151712 73 234 1.0 1.0 0.00 0.00 0.00 99 1055.8
20260905151209 73 214 0.0 2.0 0.00 0.00 0.00 99 1055.7
20260905150703 73 237 0.0 1.0 0.00 0.00 0.00 99 1055.8
20260905150202 73 344 2.0 2.0 0.00 0.00 0.00 99 1055.6
20260905145701 73 260 1.0 2.0 0.00 0.00 0.00 99 1055.8
20260905145200 73 358 1.0 3.0 0.00 0.00 0.00 99 1055.8
20260905144655 73 317 2.0 3.0 0.00 0.00 0.00 99 1055.7
20260905144155 73 235 0.0 3.0 0.00 0.00 0.00 99 1055.7
20260905143654 73 244 0.0 1.0 0.00 0.00 0.00 99 1055.6
20260905143148 73 230 0.0 0.0 0.00 0.00 0.00 99 1055.6
20260905142648 73 43 2.0 2.0 0.00 0.00 0.00 99 1055.5
20260905142147 73 243 0.0 1.0 0.00 0.00 0.00 99 1055.4
20260905141642 73 219 0.0 1.0 0.00 0.00 0.00 99 1055.3
20260905141138 73 236 0.0 1.0 0.00 0.00 0.00 99 1055.3
20260905140628 72 248 0.0 1.0 0.00 0.00 0.00 99 1055.1
20260905140127 73 250 0.0 1.0 0.00 0.00 0.00 99 1055.1
20260905135622 72 216 0.0 1.0 0.00 0.00 0.00 99 1054.9
20260905135117 72 159 0.0 2.0 0.00 0.00 0.00 99 1054.8
20260905134612 72 177 0.0 1.0 0.00 0.00 0.00 99 1054.8
20260905134110 72 224 1.0 2.0 0.00 0.00 0.00 99 1055.1
20260905133607 72 258 0.0 2.0 0.00 0.00 0.00 99 1054.9
20260905133106 72 301 1.0 2.0 0.00 0.00 0.00 99 1054.7
20260905132606 72 290 1.0 2.0 0.00 0.00 0.00 99 1054.6
20260905132101 72 293 1.0 2.0 0.00 0.00 0.00 99 1054.7
20260905131556 71 295 0.0 2.0 0.00 0.00 0.00 99 1054.6
20260905131051 71 244 0.0 0.0 0.00 0.00 0.00 99 1054.2
20260905130550 71 244 0.0 0.0 0.00 0.00 0.00 99 1054.2
20260905130046 71 243 0.0 0.0 0.00 0.00 0.00 99 1054.2
20260905125545 71 230 0.0 0.0 0.00 0.00 0.00 99 1054.2
20260905125041 71 240 0.0 0.0 0.00 0.00 0.00 99 1054.0
20260905124537 71 232 0.0 0.0 0.00 0.00 0.00 99 1053.9
20260905124033 70 230 0.0 0.0 0.00 0.00 0.00 99 1053.8
20260905123528 70 233 0.0 0.0 0.00 0.00 0.00 99 1053.8
20260905123025 70 220 0.0 0.0 0.00 0.00 0.00 99 1053.7
20260905122519 70 238 0.0 0.0 0.00 0.00 0.00 99 1053.6
20260905122014 70 243 0.0 0.0 0.00 0.00 0.00 99 1053.4
20260905121509 70 171 0.0 0.0 0.00 0.00 0.00 99 1053.7
20260905121009 69 242 0.0 0.0 0.00 0.00 0.00 99 1053.6
20260905120503 69 233 0.0 0.0 0.00 0.00 0.00 99 1053.3
20260905115958 69 220 0.0 1.0 0.00 0.00 0.00 99 1053.3
20260905115457 70 246 1.0 1.0 0.00 0.00 0.00 99 1053.4
20260905114952 70 63 1.0 2.0 0.00 0.00 0.00 99 1053.6
20260905114451 70 244 0.0 1.0 0.00 0.00 0.00 99 1053.5
20260905113950 70 242 0.0 0.0 0.00 0.00 0.00 99 1053.6
20260905113446 70 236 0.0 0.0 0.00 0.00 0.00 99 1053.4
20260905112941 70 226 0.0 0.0 0.00 0.00 0.00 99 1053.5
20260905112436 70 235 0.0 0.0 0.00 0.00 0.00 99 1053.4
20260905111931 70 232 0.0 0.0 0.00 0.00 0.00 99 1053.5
20260905111431 70 225 0.0 0.0 0.00 0.00 0.00 99 1053.2
20260905110926 70 226 0.0 0.0 0.00 0.00 0.00 99 1053.1
20260905110419 70 226 0.0 0.0 0.00 0.00 0.00 99 1053.1
20260905105914 70 229 0.0 0.0 0.00 0.00 0.00 99 1053.1
20260905105414 71 207 1.0 1.0 0.00 0.00 0.00 99 1053.2
20260905104908 70 233 0.0 1.0 0.00 0.00 0.00 99 1053.4
20260905104404 70 252 0.0 1.0 0.00 0.00 0.00 99 1053.1
20260905103859 70 268 0.0 1.0 0.00 0.00 0.00 99 1053.2
20260905103354 70 183 1.0 1.0 0.00 0.00 0.00 99 1053.2
20260905102850 70 212 0.0 1.0 0.00 0.00 0.00 99 1053.2
20260905102346 70 211 0.0 0.0 0.00 0.00 0.00 99 1053.4
20260905101840 70 238 0.0 0.0 0.00 0.00 0.00 99 1053.5
20260905101338 70 262 0.0 1.0 0.00 0.00 0.00 99 1053.4
20260905100832 70 236 0.0 0.0 0.00 0.00 0.00 99 1053.2
20260905100329 70 234 0.0 0.0 0.00 0.00 0.00 99 1053.5
20260905095828 70 227 0.0 0.0 0.00 0.00 0.00 99 1053.2
20260905095323 71 224 0.0 0.0 0.00 0.00 0.00 99 1053.1
20260905094818 71 263 0.0 0.0 0.00 0.00 0.00 99 1053.1
20260905094313 71 253 0.0 0.0 0.00 0.00 0.00 99 1052.8
20260905093811 71 243 0.0 1.0 0.00 0.00 0.00 99 1052.6